Weather in Ostrovnoye

Russia / Chukotka Autonomous Okrug     68°06′37″N   164°10′24″E
temp.,
°C
wind,
m/s
gust,
m/s
humid.,
%
clouds,
%
prec.,
mm/h
press.,
hPa
HPBL,
m
12 april, mon
mon1200:00−30wnw1110099 0.0 10339
03:00−32sw00100100 0.0 10349
06:00−34sse11100100 0.1 10349
09:00−27e10100100 0.0 103384
12:00−22n118614 0.0 1031231
15:00−18nnw11775 0.0 1028324
18:00−17nw11815 0.0 1026202
21:00−26w11985 0.0 10279
13 april, tue
tue1300:00−30sw1110061 0.0 10269
03:00−33sse0010099 0.0 10269
06:00−34ese11100100 0.0 10269
09:00−25e119967 0.0 102472
12:00−19n118537 0.0 1022208
15:00−16nnw117560 0.0 1021341
18:00−15wnw118034 0.0 1021216
21:00−23wsw119766 0.0 10239
14 april, wed
wed1400:00−26sw1110073 0.0 10249
03:00−28sse1110093 0.0 10259
06:00−29ese11100100 0.0 10259
09:00−21e119796 0.0 102580
12:00−16e118458 0.0 1024230
15:00−13e117742 0.0 1023341
18:00−12e128159 0.0 1022239
21:00−19e119329 0.0 10229
15 april, thu
thu1500:00−24ese11995 0.0 10239
03:00−27e2110080 0.0 10229
06:00−29ese2210099 0.0 102110
09:00−18e229784 0.0 101791
12:00−12e2283100 0.0 1014200
15:00−8ese2374100 0.0 1011326
18:00−7ese238095 0.0 1010244
21:00−14ese2289100 0.0 10119
16 april, fri
fri1600:00−16ese219473 0.0 101210
03:00−12ese2296100 0.3 101166
06:00−12ese2296100 0.6 101240
09:00−9ese228928 0.1 1012153
12:00−5sse357692 0.1 1012563
15:00−3ssw477794 0.0 1013907
18:00−4ssw4685100 0.3 1014790
21:00−10wsw119751 0.2 101610